Date,TemperatureHighF,TemperatureAvgF,TemperatureLowF,DewpointHighF,DewpointAvgF,DewpointLowF,HumidityHigh,HumidityAvg,HumidityLow,PressureMaxIn,PressureMinIn,WindSpeedMaxMPH,WindSpeedAvgMPH,GustSpeedMaxMPH,PrecipitationSumIn
2013-4-12,40,34,32,29,27,21,86,75,46,29.88,29.68,4,0,4,0.09
2013-4-13,42,36,32,34,32,29,87,83,72,29.68,29.44,11,1,11,0.32
2013-4-14,48,40,36,100,36,32,92,82,16,29.90,29.65,14,1,14,0.08
2013-4-15,56,41,32,39,34,29,91,75,50,30.19,29.90,7,1,7,0.00
2013-4-16,52,44,39,43,37,32,88,76,48,30.18,29.67,10,3,11,0.06
2013-4-17,59,49,38,100,30,20,88,50,16,30.10,29.67,21,8,26,0.01
2013-4-18,52,41,30,32,24,13,68,51,26,30.20,29.89,4,1,4,0.00
2013-4-19,60,52,45,54,46,30,91,81,54,29.89,29.43,8,3,8,0.00
2013-4-20,56,51,43,53,42,27,93,75,41,29.85,29.32,16,5,18,0.01
2013-4-21,52,42,34,27,19,7,64,43,21,30.43,29.85,19,6,22,0.00
2013-4-22,56,40,29,32,22,13,78,50,26,30.53,30.42,5,1,5,0.00
2013-4-23,47,38,29,38,32,25,89,79,57,30.42,29.94,4,1,4,0.02
2013-4-24,59,48,42,54,45,39,93,90,81,29.94,29.49,5,1,6,0.32
2013-4-25,62,51,43,48,38,24,93,65,25,30.02,29.53,17,4,17,0.05
2013-4-26,65,48,37,100,29,22,73,51,16,30.17,30.02,11,2,15,0.00
2013-4-27,66,47,33,38,31,22,86,58,21,30.16,30.04,12,2,12,0.00
2013-4-28,71,52,36,45,37,32,90,61,32,30.07,30.00,5,1,5,0.00
2013-4-29,72,52,36,44,37,28,91,62,19,30.04,29.91,6,1,6,0.00
2013-4-30,74,54,37,48,37,27,98,62,21,30.13,30.01,5,1,136,0.00
2013-5-1,76,53,36,44,35,26,96,58,20,30.21,30.12,6,1,6,0.00
2013-5-2,72,52,40,48,39,25,90,66,19,30.29,30.17,7,1,7,0.00
2013-5-3,74,53,39,47,40,35,88,66,29,30.30,30.13,7,1,13,0.00
2013-5-4,70,49,36,43,36,28,95,66,22,30.17,30.06,6,2,6,0.00
2013-5-5,69,51,37,44,39,34,97,67,34,30.09,30.00,8,2,8,0.00
2013-5-6,70,52,38,46,42,37,98,74,30,30.02,29.93,8,2,8,0.00
2013-5-7,76,55,43,100,47,42,99,78,42,29.94,29.86,8,2,8,0.00
2013-5-12,56,54,48,56,54,46,99,97,91,29.47,29.30,15,2,17,0.27
2013-5-13,60,50,42,46,40,35,98,73,47,29.75,29.45,15,3,18,0.02
2013-5-14,58,48,42,40,34,29,86,59,36,29.77,29.67,15,3,15,0.00
2013-5-15,67,50,37,48,37,29,99,68,26,29.73,29.44,14,2,14,0.26
2013-5-16,72,58,48,57,50,42,99,77,45,29.52,29.32,14,2,16,0.01
2013-5-17,62,53,44,44,41,36,82,64,43,29.95,29.51,15,4,15,0.00
2013-5-18,65,50,40,45,40,37,94,72,37,30.11,29.94,11,1,11,0.00
2013-5-19,68,50,38,48,43,37,97,78,46,30.13,30.01,4,1,4,0.00
2013-5-20,61,53,49,56,51,47,99,94,81,30.01,29.69,5,1,5,0.60
2013-5-21,52,50,48,52,49,40,99,97,96,29.83,29.73,2,0,2,0.12
2013-5-22,53,50,48,52,49,40,99,98,95,29.81,29.68,4,1,4,0.24
2013-5-23,62,55,47,60,54,40,99,96,88,29.71,29.57,7,1,172,0.02
2013-5-24,61,58,49,61,57,49,99,98,97,29.60,29.42,10,2,12,0.77
2013-5-25,51,50,40,50,49,40,99,98,96,29.59,29.47,11,2,11,0.35
2013-5-26,51,49,40,50,47,40,99,94,85,29.68,29.41,17,3,21,0.35
2013-5-27,66,52,40,43,39,32,92,65,32,29.93,29.67,21,5,27,0.01
2013-5-28,71,55,41,46,41,29,96,64,23,30.00,29.92,12,2,12,0.00
2013-5-29,54,51,46,53,49,41,99,92,78,30.01,29.75,3,1,3,0.32
2013-5-30,80,64,51,67,58,50,99,82,51,29.80,29.71,12,2,12,0.00
2013-5-31,87,72,57,66,61,56,96,72,45,29.81,29.64,8,2,8,0.00
2013-6-1,92,74,32,68,62,14,93,70,44,29.69,29.58,8,2,8,0.00
2013-6-2,86,71,62,68,62,14,91,76,54,29.59,29.48,9,2,10,0.04
2013-6-3,72,64,59,65,60,57,95,88,71,29.60,29.47,10,2,10,0.01
2013-6-4,64,59,51,59,47,41,92,65,44,29.77,29.52,23,6,23,0.00
2013-6-5,72,58,48,49,44,14,81,61,34,30.07,29.77,15,4,15,0.00
2013-6-6,75,59,48,52,48,14,93,68,30,29.98,29.91,5,1,5,0.00
2013-6-7,65,57,53,53,49,40,95,77,42,29.94,29.76,4,1,4,0.22
2013-6-8,62,57,32,58,54,14,99,92,46,29.76,29.40,11,2,12,0.65
2013-6-9,70,59,52,59,54,14,94,83,64,29.90,29.72,10,2,10,0.00
2013-6-10,75,61,52,56,52,49,96,76,42,29.98,29.82,6,1,8,0.00
2013-6-11,56,55,32,55,53,14,98,94,46,29.83,29.30,6,1,7,0.00
2013-6-12,59,55,52,58,54,51,99,96,90,29.48,29.23,7,2,8,0.01
2013-6-13,72,59,51,57,52,50,98,81,52,29.56,29.47,8,2,9,0.00
2013-6-14,70,60,52,58,53,48,93,79,62,29.51,29.42,7,1,7,0.00
2013-6-15,75,62,50,52,47,40,96,61,33,29.64,29.47,21,5,21,0.00
2013-6-16,80,63,53,55,51,46,92,67,34,29.65,29.49,8,2,8,0.00
2013-6-17,79,63,54,63,57,52,97,83,47,29.62,29.47,20,3,20,0.06
2013-6-18,69,62,54,59,52,14,96,73,50,29.72,29.60,13,3,13,0.00
2013-6-19,76,63,52,54,47,39,88,60,28,29.89,29.68,11,2,11,0.00
2013-6-20,80,64,51,54,50,14,93,65,33,30.00,29.89,11,2,11,0.00
2013-6-21,81,66,55,60,55,14,92,70,40,29.99,29.92,8,2,10,0.00
2013-6-22,76,66,58,64,59,53,90,77,62,29.97,29.88,7,1,8,0.00
2013-6-23,78,66,59,68,62,56,96,87,68,29.91,29.73,5,1,6,0.01
2013-6-24,87,74,64,71,67,14,97,79,53,29.73,29.57,14,3,14,0.00
2013-6-25,90,76,67,69,66,62,95,74,47,29.61,29.47,13,2,13,0.06
2013-6-26,72,66,60,69,64,59,97,93,86,29.65,29.46,5,1,7,0.02
2013-6-27,65,59,55,60,57,54,96,91,82,29.67,29.62,2,0,3,0.00
2013-6-28,62,59,57,61,59,56,99,98,96,29.65,29.37,4,1,7,0.84
2013-6-29,69,64,61,69,63,60,99,97,95,29.48,29.35,7,1,7,0.07
2013-6-30,78,68,63,72,66,62,99,92,74,29.71,29.48,4,1,4,0.00
2013-7-1,77,70,64,70,67,63,97,90,78,29.89,29.70,3,0,4,0.02
2013-7-2,68,61,57,67,60,56,97,96,91,30.00,29.87,6,1,6,0.20
2013-7-3,83,67,58,70,62,57,99,86,64,29.96,29.88,5,1,5,0.00
2013-7-4,88,75,64,72,67,61,97,78,50,29.92,29.81,13,2,13,0.00
2013-7-5,89,78,68,73,69,66,96,77,50,29.86,29.76,15,3,17,0.11
2013-7-6,86,78,71,74,70,63,96,77,56,29.78,29.67,15,4,15,0.00
2013-7-7,88,78,68,68,65,62,86,66,47,29.71,29.64,14,3,15,0.00
2013-7-8,79,70,60,67,63,49,93,78,50,29.86,29.67,5,1,7,0.15
2013-7-9,74,66,62,66,62,59,92,87,76,29.91,29.85,3,1,3,0.00
2013-7-10,71,65,62,65,62,59,94,88,78,29.88,29.56,4,1,4,0.05
2013-7-11,75,69,64,70,67,62,98,94,83,29.74,29.52,12,1,12,0.06
2013-7-12,84,70,62,64,58,54,89,68,42,29.99,29.73,5,2,5,0.00
2013-7-13,86,71,59,64,60,57,94,71,44,30.08,29.98,9,1,9,0.00
2013-7-14,89,74,62,69,63,57,90,71,46,30.05,29.94,9,2,11,0.00
2013-7-15,92,78,67,70,67,63,95,72,42,29.95,29.81,11,2,12,0.00
2013-7-16,92,78,68,69,65,39,86,66,42,29.96,29.84,7,1,7,0.00
2013-7-17,87,73,65,70,64,57,96,72,56,29.97,29.68,7,2,8,0.12
2013-7-18,86,75,68,70,65,39,96,74,46,29.78,29.68,11,2,11,0.02
2013-7-19,88,76,68,75,70,65,96,83,64,29.73,29.39,8,2,8,0.09
2013-7-20,91,78,39,71,68,39,93,72,51,29.55,29.36,28,4,28,0.07
2013-7-21,77,68,60,61,56,39,80,66,49,29.81,29.55,10,2,11,0.01
2013-7-22,76,65,58,64,57,54,93,77,62,29.83,29.73,3,1,3,0.00
2013-7-23,69,64,59,68,63,55,98,94,86,29.73,29.31,5,1,5,0.59
2013-7-24,84,69,39,72,64,39,99,85,65,29.74,29.32,16,2,16,0.00
2013-7-25,74,63,39,60,54,39,93,73,53,29.91,29.74,6,1,8,0.01
2013-7-26,69,65,62,68,64,60,98,96,93,29.87,29.62,4,1,7,0.76
2013-7-27,79,69,61,67,62,60,97,81,61,29.83,29.61,16,4,16,0.01
2013-7-28,74,66,60,67,62,58,95,88,77,29.84,29.79,2,0,4,0.00
2013-7-29,75,68,64,68,64,39,95,88,77,29.84,29.76,5,1,6,0.00
2013-7-30,77,69,39,65,62,39,96,79,51,29.83,29.76,14,2,14,0.00
2013-7-31,80,67,39,62,58,39,94,73,47,29.86,29.79,14,2,14,0.00
2013-8-1,82,68,58,67,60,55,94,78,47,29.83,29.68,4,1,4,0.00
2013-8-2,68,65,62,66,63,59,97,94,88,29.69,29.55,9,1,9,0.22
2013-8-3,76,64,58,65,61,57,98,90,61,29.60,29.48,18,2,20,0.14
2013-8-4,62,59,57,60,58,56,97,96,93,29.54,29.50,4,1,4,0.01
2013-8-18,62,62,61,58,58,57,89,87,86,29.84,29.81,2,0,2,0.00
2013-8-19,82,70,59,66,61,57,94,76,53,29.81,29.62,18,3,18,0.00
2013-8-20,82,71,64,67,63,60,92,76,55,29.85,29.70,8,1,9,0.00
2013-8-21,86,72,62,68,63,59,95,75,54,29.89,29.76,10,2,10,0.00
2013-8-22,87,73,64,67,64,60,93,76,49,29.77,29.52,8,2,8,0.00
2013-8-23,75,68,64,67,61,52,93,78,46,29.73,29.52,11,3,11,0.01
2013-9-9,56,56,56,51,50,48,84,80,76,29.89,29.88,3,2,3,0.00
2013-9-10,62,61,61,58,57,56,88,87,85,29.85,29.83,2,0,2,0.00
2013-9-11,79,68,60,69,63,56,90,83,70,29.84,29.65,8,1,8,0.00
2013-9-12,76,68,65,70,64,62,91,87,76,29.78,29.44,11,2,14,0.18
2013-9-13,67,64,59,64,61,56,93,92,90,29.45,29.36,9,1,9,0.77
2013-9-14,68,60,55,58,55,50,94,82,65,29.76,29.42,10,2,10,0.00
2013-9-15,67,57,50,53,50,47,90,77,58,29.86,29.75,8,2,9,0.00
2013-9-16,62,55,44,54,49,34,90,80,67,29.98,29.71,8,2,11,0.00
2013-9-17,64,50,39,47,40,34,86,71,47,30.10,29.98,11,2,11,0.00
2013-9-18,69,56,46,54,47,43,91,75,45,30.02,29.83,8,1,8,0.00
2013-9-19,52,50,48,49,46,45,90,88,82,29.85,29.82,2,0,2,0.00
2013-9-20,68,57,52,55,50,48,85,77,64,29.85,29.81,2,0,3,0.00
2013-9-21,66,60,52,58,54,48,89,83,73,29.82,29.57,6,1,7,0.00
2013-9-22,66,62,56,62,58,49,89,85,76,29.58,29.36,11,3,11,0.27
2013-9-23,56,52,47,49,44,41,81,73,64,29.65,29.46,16,8,16,0.00
2013-9-24,53,51,47,46,43,41,85,75,69,29.64,29.54,15,6,15,0.04
2013-9-25,59,53,48,48,45,44,86,76,65,29.69,29.56,8,2,22,0.00
2013-9-26,62,55,48,49,47,44,85,75,62,29.86,29.69,8,2,8,0.00
2013-9-27,70,59,40,53,50,40,85,73,53,30.00,29.86,6,1,6,0.00
2013-9-28,70,57,49,55,50,46,90,77,52,30.08,29.99,6,1,6,0.00
2013-9-29,66,54,45,54,47,40,91,78,52,30.02,29.87,8,1,8,0.00
2013-9-30,65,53,45,51,46,42,91,78,48,29.90,29.56,8,2,8,0.00
2013-10-1,72,59,52,54,50,45,87,72,48,29.71,29.55,7,1,8,0.00
2013-10-2,76,62,40,58,53,40,89,72,47,29.62,29.47,18,2,18,0.00
2013-10-3,71,59,50,51,47,40,85,66,44,29.80,29.54,16,3,17,0.00
2013-10-4,67,56,49,51,47,40,86,71,47,29.84,29.76,8,1,9,0.00
2013-10-5,62,54,47,47,44,40,85,68,50,29.91,29.83,5,1,6,0.00
2013-10-6,60,50,41,46,39,34,88,67,46,30.04,29.91,4,1,4,0.18
2013-10-7,67,57,47,63,54,43,90,89,87,29.99,29.55,10,2,10,0.17
2013-10-8,66,55,43,62,45,37,88,70,51,30.12,29.55,17,4,17,0.00
2013-10-9,62,49,41,46,40,36,87,74,44,30.20,30.12,4,1,9,0.00
2013-10-10,64,50,40,49,43,38,93,77,44,30.12,29.63,3,1,3,0.00
2013-10-11,70,56,45,54,48,40,91,78,52,29.97,29.88,4,1,4,0.00
2013-10-12,60,52,45,49,46,40,87,78,61,30.20,29.97,4,1,9,0.00
2013-10-13,59,49,43,47,42,39,90,78,58,30.24,30.14,8,0,9,0.00
2013-10-14,60,50,39,48,43,36,91,80,63,30.14,30.01,6,2,8,0.04
2013-10-15,64,55,50,52,49,46,88,79,58,30.04,29.97,4,1,9,0.00
2013-10-16,60,55,51,52,50,48,88,84,73,29.99,29.63,5,0,6,0.01
2013-10-17,65,56,40,56,52,40,90,85,73,29.65,29.50,7,1,7,0.00
2013-10-18,63,56,50,56,49,43,90,79,59,29.55,29.32,15,3,15,0.14
2013-10-19,61,53,45,46,43,39,83,69,49,29.65,29.53,10,2,11,0.00
2013-10-20,61,54,47,51,41,30,86,64,34,29.66,29.41,18,4,18,0.01
2013-10-21,60,49,39,44,37,32,83,63,42,29.78,29.65,14,4,14,0.00
2013-10-22,62,54,44,51,47,40,88,80,67,29.75,29.43,11,2,11,0.13
2013-10-23,52,44,37,42,37,33,92,79,49,29.50,29.30,5,1,5,0.00
2013-10-24,48,44,36,37,30,25,81,60,43,29.49,29.30,16,5,19,0.01
2013-10-25,50,42,36,50,31,27,78,63,45,29.81,29.47,15,4,15,0.00
2013-10-26,50,42,33,37,31,24,78,65,49,29.85,29.64,14,2,17,0.00
2013-10-27,53,46,41,41,37,30,89,73,55,29.71,29.50,16,3,16,0.07
2013-10-28,53,42,34,37,31,22,77,63,49,30.05,29.71,27,4,31,0.00
2013-10-29,47,35,29,26,22,14,79,61,31,30.15,30.04,11,2,11,0.00
2013-10-30,48,36,29,30,25,14,85,66,36,30.06,29.86,10,2,11,0.00
2013-10-31,57,42,28,54,37,14,89,81,65,29.96,29.51,12,2,12,0.26
2013-11-1,62,58,56,57,54,49,89,85,75,29.51,29.06,14,4,14,0.34
2013-11-2,64,52,42,62,44,38,92,74,53,29.88,29.26,12,2,49,0.01
2013-11-3,88,37,31,38,22,13,86,56,34,30.09,29.48,14,2,14,0.08
2013-11-4,84,32,26,69,16,12,69,52,37,30.40,29.73,8,2,8,0.00
2013-11-5,47,36,26,33,27,14,83,71,46,30.41,30.20,6,1,6,0.00
2013-11-6,52,44,35,46,38,30,88,79,69,30.20,29.71,11,2,11,0.00
2013-11-7,64,51,32,52,45,14,85,80,46,29.86,29.36,17,4,17,0.17
2013-11-8,44,39,34,32,26,22,73,59,48,29.61,29.45,17,7,17,0.00
2013-11-9,42,36,29,25,22,14,70,55,43,29.82,29.61,21,7,21,0.00
2013-11-10,44,37,30,40,32,14,89,81,67,29.79,29.40,9,1,9,0.21
2013-11-11,44,39,36,35,31,28,89,73,55,29.67,29.41,21,5,21,0.00
2013-11-12,44,34,28,34,21,13,79,58,48,29.73,29.51,24,8,24,0.00
2013-11-13,33,29,26,18,13,8,61,51,43,29.85,29.73,23,8,23,0.00
2013-11-14,45,36,28,29,23,12,77,59,49,29.78,29.64,17,3,17,0.00
2013-11-15,50,36,29,36,28,14,87,72,44,29.94,29.76,4,0,4,0.00
2013-11-16,48,37,31,35,30,14,84,77,58,30.12,29.94,3,0,3,0.00
2013-11-17,50,42,31,45,37,14,89,82,74,30.14,29.76,4,0,4,0.02
2013-11-18,84,51,41,54,47,38,88,86,76,29.76,29.21,8,2,8,0.54
2013-11-19,42,37,32,39,24,14,89,60,44,29.84,29.28,29,11,29,0.01
2013-11-20,38,32,26,18,10,0,54,41,21,30.31,29.83,25,6,25,0.00
2013-11-21,47,33,24,25,16,9,71,52,22,30.31,30.04,7,1,7,0.00
2013-11-22,40,34,28,28,24,20,80,67,46,30.04,29.46,7,0,8,0.00
2013-11-23,38,36,32,34,26,16,87,68,43,29.48,29.37,34,9,34,0.07